Regional Weather Roundup
Issued by NWS Jackson, KY

Home | Current Version | Previous Version | Text Only | Print | Product List | Glossary Off
Versions: 1 2 3 4 5 6 7 8 9 10 11 12 13 14 15 16 17 18 19 20 21 22 23 24 25 26 27

000
ASUS43 KJKL 292310
RWRJKL

EAST KENTUCKY HOURLY WEATHER ROUNDUP
NATIONAL WEATHER SERVICE JACKSON KY
700 PM EDT SAT APR 29 2017

NOTE: "FAIR" INDICATES FEW OR NO CLOUDS BELOW 12,000 FEET WITH
NO SIGNIFICANT WEATHER AND/OR OBSTRUCTIONS TO VISIBILITY.

* THESE REPORTS ARE NOT UNDER NWS QUALITY CONTROL AND MAY NOT
  REPORT WEATHER SUCH AS PRECIPITATION AND FOG.

KYZ079-080-083-085-087-088-110-112-115-119-120-300000
...EASTERN KENTUCKY...

CITY           SKY/WX    TMP DP  RH WIND       PRES   REMARKS
JACKSON        CLOUDY    85  61  44 SE5       30.02F
LONDON         MOSUNNY   84  63  49 S7        30.01S
SOMERSET*      CLOUDY    82  59  44 S7        29.98F
MONTICELLO*    MOSUNNY   85  65  51 SE9       29.99F
WILLIAMSBURG*  PTCLDY    86  63  45 S9        30.00F
MIDDLESBORO*   SUNNY     87  62  41 SW3       30.02S
HARLAN APT*    MOCLDY    88  55  33 CALM      30.03F
PIKE CO APT*     N/A     81  64  56 NE5       30.04S
BIG SANDY APT* CLOUDY    83  67  59 CALM      30.02F
MOREHEAD APT*  CLOUDY    82  64  54 CALM      30.02S
$$

KYZ035-036-041-042-044-050-067-078-099-300000
...CENTRAL KENTUCKY...

CITY           SKY/WX    TMP DP  RH WIND       PRES   REMARKS
MT STERLING*   SUNNY     82  68  61 E6        30.00F
FLEMING/MASON* SUNNY     82  67  60 CALM      30.01F
DANVILLE*      CLOUDY    70  66  88 E3        29.98F
LEXINGTON      CLOUDY    83  64  52 SE8       29.97F
FRANKFORT      PTSUNNY   82  67  60 SE6       29.95F
LOUISVILLE     CLOUDY    86  67  52 SE14      29.90F
LEBANON*         N/A     81  72  74 NE3       29.95F
GLASGOW*       SUNNY     85  64  50 S7        29.92F
BOWLING GREEN  SUNNY     88  66  48 S18G25    29.91F HX  90
$$

KYZ091>093-OHZ055-061-077-WVZ005-015-034-035-042-300000
...SOUTHERN OHIO/WEST VIRGINIA...

CITY           SKY/WX    TMP DP  RH WIND       PRES   REMARKS
COVINGTON      PTSUNNY   79  66  64 SE9       29.97F
COLUMBUS       PTSUNNY   75  63  66 E5        30.03F
DAYTON         CLOUDY    63  60  90 N10       30.02F
WILMINGTON     SUNNY     76  65  68 SE7       30.00F
HUNTINGTON     CLOUDY    82  68  62 NE7       30.01F
CHARLESTON     CLOUDY    84  65  52 NE6       30.03F
PINEVILLE*     PTSUNNY   83  63  49 MISG      30.13R
BECKLEY        CLOUDY    79  59  50 NE3       30.13S
BLUEFIELD      CLOUDY    69  60  73 CALM      30.17R
LOGAN CO APT*    N/A     82  61  47 NE5       30.06S
$$

VAZ002-007-008-TNZ017-027-036-066-071-300000
...SOUTHWEST VIRGINIA/EAST TENNESSEE...

CITY           SKY/WX    TMP DP  RH WIND       PRES   REMARKS
WISE*          PTSUNNY   81  59  47 SW8       30.13S
JONESVILLE*      N/A     90  61  37 SW10      30.04F
ABINGDON*      CLOUDY    78  63  61 E8        30.10S
BRISTOL        CLOUDY    80  68  66 CALM      30.05F
MORRISTOWN*    CLEAR     88  63  42 W7        30.01F
SEVIERVILLE*   CLEAR     90  57  33 SW8       30.01R
KNOXVILLE      MOSUNNY   84  79  85 SW10      30.01S HX  96
LAFOLLETTE*    CLEAR     86  64  48 S8G14     30.05S
OAK RIDGE      SUNNY     88  61  40 VRB6      30.03S
CROSSVILLE     SUNNY     81  62  52 S9G20     30.07S
NASHVILLE      MOSUNNY   87  63  44 S16G23    29.94F
$$

...KEY TO REMARKS...
VSB - VISIBILITY IN MILES
WCI - WIND CHILL INDEX
HX  - HEAT INDEX

$$




USA.gov is the U.S. government's official web portal to all federal, state and local government web resources and services.